DECAYED

CZ-6A DEB, 54908 (Decayed)

Orbit data source: Space-Track

CZ-6A DEB, 54908 was space debris in SSO originally from a launch on Fri, 11 Nov 2022 UTC launched from the Taiyaun Space Center, China (TSC). Debris objects in space refer to the collection of defunct objects orbiting the Earth. Examples of debris include non-operational satellites, rocket bodies, and fragments generated from explosions, collisions, or faulty payload assembly.

Not visible in the next 10 days
Identifier
54908, 2022-151QV
Orbit
Decayed
Country
Flag of CNCN / PRC
Related business
Manufacturer
SAST
Mission
Decayed spacecraft
Bus & Motor
Unknown
Mass
Unknown
Launch date (UTC)
2022-11-11 (4 years ago)
Launch vehicle
Unknown
Launch site
Taiyaun Space Center, China (TSC)
Object type
Payload
Rocket body
Debris
Shape & HBR
Unknown shape, 0.1 m
Radar Cross Section
Small (<0.1 m²)

Expand to show TLE details & history
Last TLE update: 4 months ago

TLE from 4 months ago
0 CZ-6A DEB
1 54908U 22151QV  26120.19537638  .04049859  18394-1  14815-1 0  9995
2 54908  98.6142 216.0641 0026643 292.5091  67.3358 15.91049581181765
Epoch: 2026-04-30T04:41Z
TLE epoch observation values (Epoch: 2026-04-30T04:41:20.519Z)
Latitude
-0.00005°
Longitude
-72.41686°
Altitude
295.676 km
Speed
7.734 km/s
True Right ascension
14h 24m 15s
True Declination
0° 00' 00"
Sunlit
Object was in full shadow at epoch
Visualization orbit readout
Latitude
Unknown
Longitude
Unknown
Altitude
Unknown
Speed
Unknown
Apparent Right ascension
Unknown
Apparent Declination
Unknown
Sunlit
N/A
Visualization observer readout
Local Sidereal Time
19:33:24
Azimuth
Unknown
Elevation
Unknown
Doppler factor
Unknown
Orbital elements
Apogee altitude
314.057 km
Perigee altitude
278.491 km
Semi-major axis
6,674.411 km
Eccentricity
0.00266
Inclination
98.6142°
RAAN
216.0641°
Arg. of periapsis
292.5091°
True anomaly
67.61789°
Mean anomaly
67.3358°
Eccentric anomaly
67.47681°
Mean motion
3.98037 °/min
Orbital period
90.44 mins
BSTAR
0.014815
Loading maneuver chart data...
Computing Atmospheric mass density...
Loading historical data...
Loading historical data...
Loading historical data...
Loading historical data...
Loading historical data...
Loading historical data...
Loading historical data...

Documentation

Showing up to 5 results
|